| time (UTC) | temp F | wind direction | speed knots | gust knots | rain 1hr in | rain 24hr in | rain mn in | humidity % | barometer mb |
| 20260905061017 | 67 | 0 | 0.9 | 5.2 | 0.00 | 0.10 | 0.00 | 91 | 1015.2 |
| 20260905060520 | 67 | 37 | 0.9 | 3.5 | 0.00 | 0.10 | 0.00 | 91 | 1015.2 |
| 20260905060038 | 67 | 51 | 0.0 | 2.6 | 0.00 | 0.10 | 0.00 | 92 | 1015.2 |
| 20260905055517 | 67 | 0 | 0.0 | 2.6 | 0.00 | 0.10 | 0.00 | 92 | 1015.4 |
| 20260905055016 | 67 | 23 | 0.0 | 3.5 | 0.00 | 0.10 | 0.00 | 92 | 1015.6 |
| 20260905054535 | 67 | 18 | 0.9 | 3.5 | 0.00 | 0.10 | 0.00 | 92 | 1015.6 |
| 20260905054017 | 67 | 22 | 0.0 | 2.6 | 0.00 | 0.10 | 0.00 | 92 | 1015.8 |
| 20260905053519 | 67 | 0 | 0.0 | 0.9 | 0.00 | 0.10 | 0.00 | 93 | 1015.7 |
| 20260905053038 | 67 | 0 | 0.0 | 0.9 | 0.00 | 0.10 | 0.00 | 93 | 1015.7 |
| 20260905052522 | 67 | 0 | 0.0 | 1.7 | 0.00 | 0.10 | 0.00 | 93 | 1015.6 |
| 20260905052017 | 67 | 0 | 0.0 | 1.7 | 0.00 | 0.10 | 0.00 | 93 | 1015.5 |
| 20260905051537 | 67 | 0 | 0.0 | 2.6 | 0.00 | 0.10 | 0.00 | 94 | 1015.5 |
| 20260905051017 | 67 | 315 | 0.9 | 2.6 | 0.00 | 0.10 | 0.00 | 94 | 1015.4 |
| 20260905050522 | 67 | 18 | 0.0 | 0.9 | 0.00 | 0.10 | 0.00 | 94 | 1015.4 |
| 20260905050034 | 67 | 0 | 0.0 | 2.6 | 0.00 | 0.10 | 0.00 | 94 | 1015.4 |
| 20260905045516 | 67 | 0 | 0.0 | 2.6 | 0.00 | 0.10 | 0.00 | 94 | 1015.4 |
| 20260905045016 | 67 | 56 | 0.0 | 2.6 | 0.00 | 0.10 | 0.00 | 94 | 1015.4 |
| 20260905044541 | 67 | 0 | 0.0 | 1.7 | 0.00 | 0.10 | 0.00 | 94 | 1015.5 |
| 20260905044016 | 67 | 0 | 0.0 | 1.7 | 0.00 | 0.10 | 0.00 | 94 | 1015.5 |
| 20260905043517 | 67 | 0 | 0.0 | 0.9 | 0.00 | 0.10 | 0.00 | 94 | 1015.5 |
| 20260905043038 | 67 | 0 | 0.0 | 0.0 | 0.00 | 0.10 | 0.00 | 94 | 1015.6 |
| 20260905042519 | 67 | 0 | 0.0 | 0.9 | 0.00 | 0.10 | 0.00 | 93 | 1015.5 |
| 20260905042020 | 68 | 0 | 0.0 | 0.9 | 0.00 | 0.10 | 0.00 | 93 | 1015.6 |
| 20260905041537 | 68 | 0 | 0.0 | 0.9 | 0.00 | 0.10 | 0.00 | 93 | 1015.6 |
| 20260905041020 | 68 | 0 | 0.0 | 2.6 | 0.00 | 0.10 | 0.00 | 93 | 1015.6 |
| 20260905040517 | 68 | 0 | 0.9 | 2.6 | 0.00 | 0.10 | 0.00 | 93 | 1015.7 |
| 20260905040033 | 68 | 0 | 0.0 | 2.6 | 0.00 | 0.10 | 0.00 | 93 | 1015.7 |
| 20260905035517 | 68 | 0 | 0.0 | 2.6 | 0.00 | 0.10 | 0.10 | 93 | 1015.7 |
| 20260905035017 | 68 | 82 | 0.0 | 2.6 | 0.00 | 0.10 | 0.10 | 93 | 1015.7 |
| 20260905034536 | 68 | 94 | 0.0 | 1.7 | 0.00 | 0.10 | 0.10 | 92 | 1015.8 |
| 20260905034018 | 69 | 0 | 0.0 | 1.7 | 0.00 | 0.10 | 0.10 | 92 | 1015.9 |
| 20260905033516 | 69 | 0 | 0.0 | 1.7 | 0.00 | 0.10 | 0.10 | 92 | 1016.0 |
| 20260905033038 | 69 | 0 | 0.0 | 1.7 | 0.00 | 0.10 | 0.10 | 92 | 1016.0 |
| 20260905032519 | 69 | 0 | 0.0 | 2.6 | 0.00 | 0.10 | 0.10 | 92 | 1016.0 |
| 20260905032017 | 69 | 5 | 0.9 | 4.3 | 0.00 | 0.10 | 0.10 | 92 | 1016.2 |
| 20260905031534 | 69 | 0 | 0.0 | 4.3 | 0.00 | 0.10 | 0.10 | 92 | 1016.4 |
| 20260905031017 | 69 | 10 | 1.7 | 4.3 | 0.00 | 0.10 | 0.10 | 92 | 1016.4 |
| 20260905030520 | 69 | 0 | 0.9 | 3.5 | 0.00 | 0.10 | 0.10 | 92 | 1016.4 |
| 20260905030040 | 69 | 0 | 0.0 | 2.6 | 0.00 | 0.10 | 0.10 | 92 | 1016.4 |
| 20260905025520 | 70 | 2 | 0.0 | 3.5 | 0.00 | 0.10 | 0.10 | 92 | 1016.3 |
| 20260905025023 | 70 | 0 | 0.0 | 4.3 | 0.00 | 0.10 | 0.10 | 92 | 1016.2 |
| 20260905024536 | 70 | 16 | 0.9 | 4.3 | 0.00 | 0.10 | 0.10 | 92 | 1016.2 |
| 20260905024019 | 70 | 68 | 0.0 | 2.6 | 0.00 | 0.10 | 0.10 | 93 | 1016.1 |
| 20260905023518 | 70 | 53 | 0.0 | 1.7 | 0.00 | 0.10 | 0.10 | 93 | 1016.1 |
| 20260905023037 | 70 | 45 | 0.0 | 1.7 | 0.00 | 0.10 | 0.10 | 93 | 1016.1 |
| 20260905022517 | 70 | 0 | 0.0 | 2.6 | 0.00 | 0.10 | 0.10 | 93 | 1016.1 |
| 20260905022017 | 70 | 0 | 0.0 | 2.6 | 0.00 | 0.10 | 0.10 | 93 | 1016.1 |
| 20260905021537 | 70 | 2 | 0.9 | 2.6 | 0.00 | 0.10 | 0.10 | 93 | 1016.2 |
| 20260905021015 | 70 | 0 | 0.0 | 2.6 | 0.00 | 0.10 | 0.10 | 92 | 1016.2 |
| 20260905020520 | 70 | 68 | 0.9 | 3.5 | 0.00 | 0.10 | 0.10 | 92 | 1016.1 |
| 20260905020055 | 70 | 4 | 1.7 | 3.5 | 0.00 | 0.10 | 0.10 | 92 | 1016.2 |
| 20260905015520 | 70 | 0 | 0.9 | 3.5 | 0.00 | 0.10 | 0.10 | 93 | 1016.2 |
| 20260905015018 | 70 | 67 | 0.9 | 2.6 | 0.00 | 0.10 | 0.10 | 93 | 1016.2 |
| 20260905014538 | 70 | 64 | 0.0 | 2.6 | 0.00 | 0.10 | 0.10 | 93 | 1016.4 |
| 20260905014018 | 70 | 0 | 0.0 | 3.5 | 0.00 | 0.10 | 0.10 | 93 | 1016.4 |
| 20260905013518 | 70 | 0 | 1.7 | 3.5 | 0.00 | 0.10 | 0.10 | 93 | 1016.3 |
| 20260905013041 | 71 | 0 | 0.0 | 4.3 | 0.00 | 0.10 | 0.10 | 93 | 1016.2 |
| 20260905012519 | 71 | 65 | 0.9 | 5.2 | 0.00 | 0.10 | 0.10 | 93 | 1016.2 |
| 20260905012017 | 71 | 30 | 0.9 | 6.1 | 0.00 | 0.10 | 0.10 | 93 | 1016.2 |
| 20260905011537 | 71 | 49 | 1.7 | 6.1 | 0.00 | 0.10 | 0.10 | 92 | 1016.2 |
| 20260905011018 | 71 | 102 | 2.6 | 6.1 | 0.00 | 0.10 | 0.10 | 92 | 1016.1 |
| 20260905010517 | 72 | 72 | 0.9 | 6.1 | 0.00 | 0.10 | 0.10 | 92 | 1016.0 |
| 20260905010040 | 72 | 9 | 0.9 | 6.1 | 0.00 | 0.10 | 0.10 | 92 | 1015.9 |
| 20260905005519 | 72 | 0 | 0.9 | 5.2 | 0.00 | 0.10 | 0.10 | 92 | 1015.8 |
| 20260905005022 | 72 | 11 | 1.7 | 7.0 | 0.00 | 0.10 | 0.10 | 91 | 1015.7 |
| 20260905004548 | 73 | 353 | 0.0 | 7.0 | 0.00 | 0.10 | 0.10 | 91 | 1015.8 |
| 20260905004020 | 73 | 8 | 2.6 | 7.0 | 0.00 | 0.10 | 0.10 | 90 | 1015.8 |
| 20260905003519 | 74 | 0 | 0.9 | 9.6 | 0.00 | 0.10 | 0.10 | 90 | 1015.8 |
| 20260905003034 | 74 | 15 | 1.7 | 9.6 | 0.00 | 0.10 | 0.10 | 89 | 1015.6 |
| 20260905002520 | 75 | 349 | 0.0 | 2.6 | 0.00 | 0.10 | 0.10 | 88 | 1015.7 |
| 20260905002022 | 75 | 0 | 0.0 | 0.0 | 0.00 | 0.10 | 0.10 | 87 | 1015.6 |
| 20260905001532 | 75 | 0 | 0.0 | 0.0 | 0.00 | 0.10 | 0.10 | 87 | 1015.6 |
| 20260905001017 | 75 | 0 | 0.0 | 0.0 | 0.00 | 0.10 | 0.10 | 87 | 1015.4 |
| 20260905000523 | 75 | 0 | 0.0 | 0.0 | 0.00 | 0.10 | 0.10 | 86 | 1015.4 |
| 20260905000035 | 76 | 0 | 0.0 | 0.0 | 0.00 | 0.10 | 0.10 | 86 | 1015.4 |
| 20260904235517 | 76 | 0 | 0.0 | 0.0 | 0.00 | 0.10 | 0.10 | 86 | 1015.4 |
| 20260904235020 | 76 | 0 | 0.0 | 0.0 | 0.00 | 0.10 | 0.10 | 85 | 1015.5 |
| 20260904234539 | 76 | 0 | 0.0 | 0.0 | 0.00 | 0.10 | 0.10 | 85 | 1015.4 |
| 20260904234018 | 76 | 0 | 0.0 | 0.0 | 0.00 | 0.10 | 0.10 | 85 | 1015.5 |
| 20260904233516 | 76 | 0 | 0.0 | 0.0 | 0.00 | 0.10 | 0.10 | 84 | 1015.4 |
| 20260904233049 | 76 | 0 | 0.0 | 0.0 | 0.00 | 0.10 | 0.10 | 84 | 1015.2 |
| 20260904232520 | 76 | 0 | 0.0 | 0.0 | 0.00 | 0.10 | 0.10 | 83 | 1015.2 |
| 20260904232015 | 76 | 0 | 0.0 | 0.0 | 0.00 | 0.10 | 0.10 | 84 | 1015.1 |
| 20260904231536 | 76 | 0 | 0.0 | 0.9 | 0.00 | 0.10 | 0.10 | 84 | 1015.1 |
| 20260904231017 | 76 | 0 | 0.0 | 0.9 | 0.00 | 0.10 | 0.10 | 83 | 1015.0 |
| 20260904230522 | 76 | 0 | 0.0 | 0.9 | 0.00 | 0.10 | 0.10 | 83 | 1015.0 |
| 20260904230040 | 76 | 0 | 0.0 | 0.9 | 0.00 | 0.10 | 0.10 | 82 | 1015.0 |
| 20260904225518 | 77 | 0 | 0.0 | 0.9 | 0.00 | 0.10 | 0.10 | 83 | 1014.8 |
| 20260904225017 | 77 | 0 | 0.0 | 0.9 | 0.00 | 0.10 | 0.10 | 82 | 1014.7 |
| 20260904224537 | 77 | 0 | 0.0 | 0.9 | 0.00 | 0.10 | 0.10 | 82 | 1014.7 |
| 20260904224016 | 77 | 0 | 0.0 | 1.7 | 0.00 | 0.10 | 0.10 | 82 | 1014.6 |
| 20260904223518 | 77 | 0 | 0.0 | 1.7 | 0.00 | 0.10 | 0.10 | 82 | 1014.6 |
| 20260904223035 | 77 | 0 | 0.0 | 2.6 | 0.00 | 0.10 | 0.10 | 81 | 1014.6 |
| 20260904222522 | 77 | 0 | 0.0 | 2.6 | 0.00 | 0.10 | 0.10 | 81 | 1014.6 |
| 20260904222016 | 77 | 0 | 0.0 | 2.6 | 0.00 | 0.10 | 0.10 | 82 | 1014.7 |
| 20260904221539 | 77 | 0 | 0.0 | 2.6 | 0.00 | 0.10 | 0.10 | 81 | 1014.6 |
| 20260904221017 | 77 | 0 | 0.0 | 2.6 | 0.00 | 0.10 | 0.10 | 81 | 1014.6 |
| 20260904220518 | 77 | 0 | 0.0 | 2.6 | 0.00 | 0.10 | 0.10 | 80 | 1014.6 |
| 20260904220038 | 77 | 0 | 0.0 | 4.3 | 0.00 | 0.10 | 0.10 | 80 | 1014.6 |
| 20260904215521 | 77 | 267 | 0.9 | 4.3 | 0.00 | 0.10 | 0.10 | 81 | 1014.6 |
| 20260904215021 | 77 | 0 | 0.9 | 4.3 | 0.00 | 0.10 | 0.10 | 80 | 1014.6 |
| 20260904214538 | 77 | 0 | 0.9 | 5.2 | 0.00 | 0.10 | 0.10 | 80 | 1014.6 |
| 20260904214019 | 77 | 334 | 0.9 | 5.2 | 0.00 | 0.10 | 0.10 | 79 | 1014.4 |
| 20260904213520 | 77 | 262 | 0.0 | 4.3 | 0.00 | 0.10 | 0.10 | 80 | 1014.4 |
| 20260904213036 | 77 | 295 | 0.9 | 4.3 | 0.00 | 0.10 | 0.10 | 80 | 1014.5 |
| 20260904212517 | 78 | 271 | 0.0 | 2.6 | 0.00 | 0.10 | 0.10 | 80 | 1014.1 |
| 20260904212020 | 78 | 299 | 0.0 | 2.6 | 0.00 | 0.10 | 0.10 | 80 | 1014.2 |
| 20260904211534 | 78 | 285 | 0.0 | 4.3 | 0.00 | 0.10 | 0.10 | 80 | 1014.3 |
| 20260904211019 | 77 | 263 | 0.0 | 4.3 | 0.00 | 0.10 | 0.10 | 80 | 1014.4 |
| 20260904210516 | 77 | 0 | 0.0 | 5.2 | 0.00 | 0.10 | 0.10 | 80 | 1014.3 |
| 20260904210041 | 77 | 0 | 1.7 | 7.8 | 0.00 | 0.10 | 0.10 | 80 | 1014.4 |
| 20260904205522 | 77 | 274 | 1.7 | 7.8 | 0.00 | 0.15 | 0.10 | 80 | 1014.3 |
| 20260904205018 | 78 | 245 | 0.0 | 7.0 | 0.00 | 0.15 | 0.10 | 79 | 1014.3 |
| 20260904204535 | 78 | 243 | 1.7 | 7.0 | 0.00 | 0.15 | 0.10 | 79 | 1014.2 |
| 20260904204020 | 78 | 217 | 2.6 | 7.8 | 0.00 | 0.15 | 0.10 | 79 | 1014.1 |
| 20260904203517 | 77 | 251 | 3.5 | 7.8 | 0.00 | 0.15 | 0.10 | 78 | 1014.0 |
| 20260904203035 | 78 | 209 | 4.3 | 7.0 | 0.00 | 0.15 | 0.10 | 78 | 1014.1 |
| 20260904202519 | 78 | 264 | 0.9 | 4.3 | 0.00 | 0.15 | 0.10 | 78 | 1014.0 |
| 20260904202022 | 77 | 0 | 1.7 | 4.3 | 0.00 | 0.15 | 0.10 | 80 | 1013.9 |
| 20260904201540 | 78 | 273 | 0.9 | 4.3 | 0.00 | 0.15 | 0.10 | 80 | 1014.0 |
| 20260904201019 | 77 | 267 | 0.9 | 6.1 | 0.00 | 0.15 | 0.10 | 81 | 1014.1 |
| 20260904200522 | 77 | 0 | 0.0 | 6.1 | 0.00 | 0.15 | 0.10 | 83 | 1014.2 |
| 20260904200035 | 77 | 212 | 1.7 | 5.2 | 0.00 | 0.15 | 0.10 | 81 | 1014.3 |
| 20260904195522 | 77 | 0 | 0.9 | 5.2 | 0.00 | 0.36 | 0.10 | 82 | 1014.3 |
| 20260904195019 | 77 | 0 | 0.0 | 4.3 | 0.00 | 0.36 | 0.10 | 83 | 1014.3 |
| 20260904194537 | 77 | 0 | 0.9 | 4.3 | 0.00 | 0.36 | 0.10 | 82 | 1014.4 |
| 20260904194017 | 77 | 0 | 0.0 | 4.3 | 0.00 | 0.36 | 0.10 | 84 | 1014.5 |
| 20260904193518 | 76 | 0 | 1.7 | 4.3 | 0.00 | 0.36 | 0.10 | 84 | 1014.6 |
| 20260904193034 | 76 | 245 | 0.9 | 3.5 | 0.00 | 0.36 | 0.10 | 84 | 1014.7 |
| 20260904192523 | 76 | 148 | 0.0 | 6.1 | 0.00 | 0.36 | 0.10 | 86 | 1014.8 |
| 20260904192017 | 76 | 238 | 1.7 | 6.1 | 0.00 | 0.36 | 0.10 | 87 | 1014.9 |
| 20260904191539 | 75 | 245 | 2.6 | 5.2 | 0.00 | 0.36 | 0.10 | 87 | 1014.9 |
| 20260904191020 | 75 | 0 | 0.9 | 5.2 | 0.00 | 0.36 | 0.10 | 89 | 1014.9 |
| 20260904190520 | 75 | 156 | 2.6 | 5.2 | 0.00 | 0.36 | 0.10 | 89 | 1015.0 |
| 20260904190034 | 75 | 209 | 0.0 | 5.2 | 0.00 | 0.36 | 0.10 | 92 | 1015.0 |
| 20260904185520 | 74 | 252 | 1.7 | 5.2 | 0.00 | 0.36 | 0.10 | 92 | 1015.0 |
| 20260904185016 | 74 | 0 | 1.7 | 5.2 | 0.00 | 0.36 | 0.10 | 93 | 1015.0 |
| 20260904184536 | 73 | 255 | 2.6 | 6.1 | 0.00 | 0.36 | 0.10 | 95 | 1015.1 |
| 20260904184018 | 73 | 165 | 1.7 | 6.1 | 0.00 | 0.36 | 0.10 | 96 | 1015.1 |
| 20260904183519 | 73 | 211 | 1.7 | 6.1 | 0.00 | 0.36 | 0.10 | 96 | 1015.1 |
| 20260904183039 | 73 | 222 | 1.7 | 6.1 | 0.00 | 0.36 | 0.10 | 97 | 1015.0 |
| 20260904182519 | 73 | 0 | 0.9 | 4.3 | 0.00 | 0.36 | 0.10 | 97 | 1015.1 |
| 20260904182023 | 73 | 245 | 0.0 | 6.1 | 0.00 | 0.36 | 0.10 | 97 | 1015.1 |
| 20260904181540 | 72 | 237 | 1.7 | 6.1 | 0.00 | 0.36 | 0.10 | 97 | 1015.1 |
| 20260904181020 | 72 | 223 | 1.7 | 6.1 | 0.00 | 0.36 | 0.10 | 97 | 1015.2 |
| 20260904180516 | 72 | 233 | 1.7 | 5.2 | 0.00 | 0.36 | 0.10 | 97 | 1015.4 |
| 20260904180033 | 73 | 0 | 0.0 | 5.2 | 0.00 | 0.36 | 0.10 | 97 | 1015.4 |
| 20260904175520 | 72 | 0 | 0.9 | 5.2 | 0.00 | 0.36 | 0.10 | 97 | 1015.5 |
| 20260904175019 | 72 | 169 | 0.9 | 6.1 | 0.00 | 0.36 | 0.10 | 97 | 1015.4 |
| 20260904174535 | 72 | 205 | 0.0 | 6.1 | 0.00 | 0.36 | 0.10 | 97 | 1015.4 |
| 20260904174021 | 72 | 193 | 0.9 | 6.1 | 0.00 | 0.36 | 0.10 | 97 | 1015.5 |
| 20260904173520 | 72 | 252 | 0.9 | 4.3 | 0.00 | 0.36 | 0.10 | 97 | 1015.4 |
| 20260904173038 | 72 | 181 | 1.7 | 4.3 | 0.00 | 0.36 | 0.10 | 97 | 1015.5 |
| 20260904172518 | 72 | 126 | 0.9 | 4.3 | 0.00 | 0.36 | 0.10 | 97 | 1015.5 |
| 20260904172016 | 71 | 0 | 0.9 | 4.3 | 0.00 | 0.36 | 0.10 | 97 | 1015.4 |
| 20260904171553 | 71 | 195 | 2.6 | 4.3 | 0.00 | 0.36 | 0.10 | 97 | 1015.4 |
| 20260904171018 | 71 | 177 | 1.7 | 4.3 | 0.00 | 0.36 | 0.10 | 97 | 1015.5 |
| 20260904170520 | 71 | 203 | 0.0 | 3.5 | 0.00 | 0.36 | 0.10 | 97 | 1015.4 |
| 20260904170040 | 71 | 160 | 0.0 | 3.5 | 0.00 | 0.36 | 0.10 | 97 | 1015.4 |
| 20260904165523 | 71 | 0 | 0.9 | 3.5 | 0.00 | 0.68 | 0.10 | 97 | 1015.4 |
| 20260904165021 | 71 | 210 | 0.0 | 1.7 | 0.00 | 0.68 | 0.10 | 97 | 1015.5 |
| 20260904164547 | 70 | 0 | 0.0 | 1.7 | 0.00 | 0.68 | 0.10 | 97 | 1015.6 |
| 20260904164019 | 70 | 0 | 0.0 | 1.7 | 0.00 | 0.68 | 0.10 | 97 | 1015.5 |
| 20260904163519 | 70 | 186 | 0.9 | 1.7 | 0.00 | 0.68 | 0.10 | 97 | 1015.7 |
| 20260904163038 | 70 | 0 | 0.0 | 2.6 | 0.00 | 0.68 | 0.10 | 97 | 1015.8 |
| 20260904162517 | 70 | 0 | 0.0 | 2.6 | 0.00 | 0.68 | 0.10 | 97 | 1015.8 |
| 20260904162018 | 70 | 0 | 0.0 | 2.6 | 0.00 | 0.68 | 0.10 | 97 | 1016.2 |
| 20260904161536 | 69 | 0 | 0.0 | 0.9 | 0.00 | 0.68 | 0.10 | 97 | 1016.5 |
| 20260904161018 | 69 | 0 | 0.0 | 1.7 | 0.00 | 0.68 | 0.10 | 97 | 1016.4 |
| 20260904160518 | 69 | 0 | 0.0 | 1.7 | 0.00 | 0.68 | 0.10 | 97 | 1016.4 |
| 20260904160040 | 69 | 0 | 0.0 | 1.7 | 0.00 | 0.68 | 0.10 | 97 | 1016.6 |
| 20260904155516 | 69 | 0 | 0.0 | 3.5 | 0.00 | 0.87 | 0.10 | 97 | 1016.5 |
| 20260904155019 | 69 | 0 | 0.9 | 3.5 | 0.00 | 0.87 | 0.10 | 97 | 1016.6 |
| 20260904154539 | 69 | 169 | 0.0 | 4.3 | 0.00 | 0.87 | 0.10 | 97 | 1016.9 |
| 20260904154021 | 69 | 228 | 0.0 | 4.3 | 0.01 | 0.87 | 0.10 | 97 | 1016.8 |
| 20260904153520 | 69 | 173 | 0.0 | 2.6 | 0.01 | 0.87 | 0.10 | 97 | 1017.1 |
| 20260904153037 | 68 | 0 | 0.0 | 3.5 | 0.01 | 0.87 | 0.10 | 97 | 1017.1 |
| 20260904152518 | 68 | 0 | 0.0 | 4.3 | 0.01 | 0.87 | 0.10 | 97 | 1017.2 |
| 20260904152018 | 68 | 0 | 0.9 | 4.3 | 0.02 | 0.87 | 0.10 | 97 | 1017.3 |
| 20260904151537 | 68 | 169 | 0.9 | 4.3 | 0.02 | 0.87 | 0.10 | 97 | 1017.2 |
| 20260904151016 | 68 | 164 | 0.0 | 4.3 | 0.03 | 0.87 | 0.10 | 97 | 1017.4 |
| 20260904150519 | 68 | 0 | 0.9 | 5.2 | 0.03 | 0.87 | 0.10 | 97 | 1017.3 |
| 20260904150039 | 68 | 0 | 0.9 | 6.1 | 0.04 | 0.87 | 0.10 | 97 | 1017.2 |
| 20260904145520 | 68 | 178 | 2.6 | 6.1 | 0.04 | 0.87 | 0.10 | 97 | 1017.0 |
| 20260904145021 | 67 | 174 | 3.5 | 6.1 | 0.05 | 0.87 | 0.10 | 97 | 1017.1 |
| 20260904144538 | 67 | 209 | 0.9 | 7.0 | 0.05 | 0.87 | 0.10 | 97 | 1017.3 |
| 20260904144018 | 67 | 142 | 2.6 | 7.0 | 0.04 | 0.86 | 0.09 | 97 | 1017.0 |
| 20260904143517 | 67 | 165 | 2.6 | 5.2 | 0.04 | 0.86 | 0.09 | 97 | 1016.7 |
| 20260904143036 | 67 | 167 | 2.6 | 5.2 | 0.04 | 0.86 | 0.09 | 97 | 1016.9 |
| 20260904142518 | 67 | 198 | 1.7 | 3.5 | 0.04 | 0.86 | 0.09 | 97 | 1016.8 |
| 20260904142019 | 67 | 0 | 0.9 | 3.5 | 0.03 | 0.85 | 0.08 | 97 | 1016.7 |
| 20260904141540 | 67 | 238 | 0.9 | 3.5 | 0.03 | 0.85 | 0.08 | 97 | 1016.8 |
| 20260904141017 | 67 | 209 | 0.0 | 2.6 | 0.02 | 0.84 | 0.07 | 97 | 1016.8 |
| 20260904140517 | 67 | 161 | 1.7 | 3.5 | 0.02 | 0.84 | 0.07 | 97 | 1016.8 |
| 20260904140039 | 67 | 168 | 0.9 | 3.5 | 0.02 | 0.83 | 0.06 | 97 | 1016.9 |
| 20260904135521 | 67 | 160 | 1.7 | 4.3 | 0.03 | 0.83 | 0.06 | 97 | 1016.9 |
| 20260904135018 | 67 | 197 | 1.7 | 4.3 | 0.02 | 0.82 | 0.05 | 97 | 1017.2 |
| 20260904134537 | 67 | 160 | 0.0 | 1.7 | 0.02 | 0.82 | 0.05 | 97 | 1017.2 |
| 20260904134022 | 67 | 0 | 0.0 | 0.0 | 0.03 | 0.82 | 0.05 | 97 | 1017.3 |
| 20260904133523 | 67 | 0 | 0.0 | 0.0 | 0.03 | 0.82 | 0.05 | 97 | 1017.1 |
| 20260904133038 | 67 | 0 | 0.0 | 0.9 | 0.03 | 0.82 | 0.05 | 97 | 1017.2 |
| 20260904132518 | 67 | 0 | 0.0 | 0.9 | 0.03 | 0.82 | 0.05 | 97 | 1017.3 |
| 20260904132020 | 67 | 163 | 0.0 | 0.9 | 0.04 | 0.82 | 0.05 | 97 | 1017.1 |
| 20260904131554 | 67 | 0 | 0.0 | 1.7 | 0.04 | 0.82 | 0.05 | 97 | 1016.9 |
| 20260904131020 | 67 | 0 | 0.0 | 1.7 | 0.04 | 0.82 | 0.05 | 97 | 1017.0 |
| 20260904130523 | 67 | 148 | 0.0 | 2.6 | 0.04 | 0.82 | 0.05 | 97 | 1017.1 |
| 20260904130040 | 67 | 0 | 0.0 | 2.6 | 0.03 | 0.81 | 0.04 | 97 | 1017.6 |
| 20260904125521 | 66 | 0 | 0.0 | 2.6 | 0.02 | 0.80 | 0.03 | 97 | 1017.4 |
| 20260904125017 | 66 | 167 | 0.9 | 1.7 | 0.02 | 0.80 | 0.03 | 97 | 1017.2 |
| 20260904124536 | 66 | 172 | 0.0 | 3.5 | 0.01 | 0.79 | 0.02 | 97 | 1017.0 |
| 20260904124016 | 66 | 0 | 0.0 | 3.5 | 0.01 | 0.79 | 0.02 | 97 | 1016.9 |
| 20260904123518 | 66 | 181 | 1.7 | 4.3 | 0.01 | 0.79 | 0.02 | 97 | 1016.8 |
| 20260904123037 | 66 | 0 | 0.9 | 4.3 | 0.01 | 0.79 | 0.02 | 97 | 1016.7 |
| 20260904122516 | 66 | 129 | 1.7 | 6.1 | 0.01 | 0.79 | 0.02 | 97 | 1016.6 |
| 20260904122016 | 67 | 155 | 0.9 | 6.1 | 0.00 | 0.78 | 0.01 | 97 | 1016.8 |
| 20260904121534 | 67 | 169 | 1.7 | 6.1 | 0.00 | 0.78 | 0.01 | 97 | 1016.8 |
| 20260904121016 | 67 | 0 | 0.9 | 6.1 | 0.00 | 0.78 | 0.01 | 97 | 1016.9 |
| 20260904120520 | 66 | 175 | 1.7 | 4.3 | 0.00 | 0.78 | 0.01 | 97 | 1016.5 |
| 20260904120046 | 66 | 162 | 2.6 | 4.3 | 0.00 | 0.78 | 0.01 | 97 | 1016.4 |
| 20260904115521 | 66 | 186 | 0.9 | 3.5 | 0.00 | 0.78 | 0.01 | 97 | 1016.2 |
| 20260904115016 | 66 | 193 | 0.0 | 3.5 | 0.00 | 0.78 | 0.01 | 97 | 1016.4 |
| 20260904114534 | 66 | 217 | 0.9 | 3.5 | 0.00 | 0.78 | 0.01 | 97 | 1016.4 |
| 20260904114016 | 66 | 128 | 0.9 | 2.6 | 0.00 | 0.78 | 0.01 | 97 | 1016.4 |
| 20260904113518 | 66 | 134 | 0.9 | 2.6 | 0.00 | 0.78 | 0.01 | 97 | 1016.5 |
| 20260904113036 | 66 | 194 | 0.0 | 1.7 | 0.00 | 0.78 | 0.01 | 97 | 1016.4 |
| 20260904112516 | 66 | 0 | 0.0 | 4.3 | 0.00 | 0.78 | 0.01 | 97 | 1016.4 |
| 20260904112015 | 66 | 0 | 0.0 | 6.1 | 0.00 | 0.78 | 0.01 | 97 | 1016.1 |
| 20260904111543 | 66 | 167 | 2.6 | 6.1 | 0.00 | 0.78 | 0.01 | 97 | 1016.1 |
| 20260904111020 | 67 | 186 | 1.7 | 6.1 | 0.00 | 0.78 | 0.01 | 97 | 1016.2 |
| 20260904110520 | 67 | 148 | 1.7 | 3.5 | 0.00 | 0.78 | 0.01 | 97 | 1016.2 |
| 20260904110040 | 66 | 167 | 0.9 | 3.5 | 0.00 | 0.78 | 0.01 | 97 | 1016.1 |
| 20260904105519 | 66 | 198 | 1.7 | 3.5 | 0.00 | 0.78 | 0.01 | 97 | 1016.0 |
| 20260904105017 | 66 | 117 | 0.9 | 3.5 | 0.00 | 0.78 | 0.01 | 97 | 1015.9 |
| 20260904104535 | 66 | 0 | 0.0 | 1.7 | 0.00 | 0.78 | 0.01 | 97 | 1015.9 |
| 20260904104016 | 66 | 0 | 0.9 | 1.7 | 0.00 | 0.78 | 0.01 | 97 | 1015.9 |
| 20260904103517 | 66 | 0 | 0.0 | 1.7 | 0.00 | 0.78 | 0.01 | 97 | 1015.8 |
| 20260904103047 | 67 | 0 | 0.0 | 0.9 | 0.00 | 0.78 | 0.01 | 97 | 1015.7 |
| 20260904102518 | 66 | 0 | 0.0 | 0.9 | 0.00 | 0.78 | 0.01 | 97 | 1015.6 |
| 20260904102019 | 66 | 0 | 0.0 | 0.9 | 0.00 | 0.78 | 0.01 | 97 | 1015.4 |
| 20260904101539 | 66 | 141 | 0.0 | 2.6 | 0.00 | 0.78 | 0.01 | 97 | 1015.3 |
| 20260904101017 | 66 | 0 | 0.9 | 2.6 | 0.00 | 0.78 | 0.01 | 97 | 1015.1 |
| 20260904100518 | 66 | 0 | 0.0 | 0.9 | 0.00 | 0.78 | 0.01 | 97 | 1015.2 |
| 20260904100038 | 66 | 0 | 0.0 | 1.7 | 0.00 | 0.78 | 0.01 | 97 | 1015.2 |
| 20260904095519 | 66 | 0 | 0.0 | 1.7 | 0.00 | 0.78 | 0.01 | 97 | 1015.0 |
| 20260904095018 | 66 | 0 | 0.0 | 3.5 | 0.00 | 0.78 | 0.01 | 97 | 1015.0 |
| 20260904094536 | 66 | 0 | 0.9 | 3.5 | 0.00 | 0.78 | 0.01 | 97 | 1015.0 |
| 20260904094018 | 66 | 150 | 0.0 | 2.6 | 0.01 | 0.78 | 0.01 | 97 | 1015.0 |
| 20260904093519 | 66 | 0 | 0.0 | 1.7 | 0.01 | 0.78 | 0.01 | 97 | 1015.0 |
| 20260904093041 | 66 | 0 | 0.0 | 1.7 | 0.01 | 0.78 | 0.01 | 97 | 1015.2 |
| 20260904092520 | 66 | 82 | 0.0 | 1.7 | 0.01 | 0.78 | 0.01 | 97 | 1015.3 |
| 20260904092021 | 66 | 158 | 0.0 | 0.9 | 0.01 | 0.78 | 0.01 | 97 | 1015.6 |
| 20260904091535 | 66 | 148 | 0.0 | 0.9 | 0.01 | 0.78 | 0.01 | 97 | 1015.6 |
| 20260904091020 | 66 | 0 | 0.0 | 0.9 | 0.01 | 0.78 | 0.01 | 97 | 1016.0 |
| 20260904090516 | 66 | 0 | 0.0 | 0.9 | 0.01 | 0.78 | 0.01 | 97 | 1016.0 |
| 20260904090035 | 66 | 0 | 0.0 | 0.9 | 0.01 | 0.78 | 0.01 | 97 | 1015.8 |
| 20260904085516 | 66 | 0 | 0.0 | 0.0 | 0.01 | 0.78 | 0.01 | 97 | 1015.9 |
| 20260904085019 | 66 | 0 | 0.0 | 0.0 | 0.01 | 0.78 | 0.01 | 97 | 1015.9 |
| 20260904084536 | 66 | 0 | 0.0 | 1.7 | 0.01 | 0.78 | 0.01 | 97 | 1015.9 |
| 20260904084018 | 66 | 0 | 0.0 | 1.7 | 0.00 | 0.77 | 0.00 | 97 | 1015.8 |
| 20260904083516 | 66 | 0 | 0.0 | 0.0 | 0.00 | 0.77 | 0.00 | 97 | 1015.8 |
| 20260904083056 | 66 | 0 | 0.0 | 0.0 | 0.00 | 0.77 | 0.00 | 97 | 1015.6 |
| 20260904082519 | 66 | 0 | 0.0 | 1.7 | 0.00 | 0.77 | 0.00 | 97 | 1015.6 |
| 20260904082017 | 66 | 0 | 0.0 | 1.7 | 0.00 | 0.77 | 0.00 | 97 | 1015.6 |
| 20260904081536 | 66 | 0 | 0.0 | 1.7 | 0.00 | 0.77 | 0.00 | 97 | 1015.6 |
| 20260904081017 | 66 | 0 | 0.0 | 1.7 | 0.00 | 0.77 | 0.00 | 97 | 1015.9 |
| 20260904080518 | 66 | 0 | 0.0 | 2.6 | 0.00 | 0.77 | 0.00 | 97 | 1016.0 |
| 20260904080036 | 66 | 353 | 0.9 | 2.6 | 0.00 | 0.77 | 0.00 | 97 | 1016.2 |
| 20260904075518 | 66 | 0 | 0.0 | 0.9 | 0.00 | 0.77 | 0.00 | 97 | 1015.9 |
| 20260904075017 | 66 | 0 | 0.0 | 0.9 | 0.00 | 0.77 | 0.00 | 97 | 1015.9 |
| 20260904074559 | 66 | 0 | 0.0 | 0.9 | 0.00 | 0.77 | 0.00 | 97 | 1015.8 |
| 20260904074018 | 65 | 0 | 0.0 | 0.0 | 0.00 | 0.77 | 0.00 | 97 | 1015.7 |
| 20260904073521 | 66 | 0 | 0.0 | 0.0 | 0.00 | 0.77 | 0.00 | 97 | 1015.5 |
| 20260904073038 | 66 | 0 | 0.0 | 0.0 | 0.00 | 0.77 | 0.00 | 97 | 1015.5 |
| 20260904072520 | 65 | 0 | 0.0 | 0.0 | 0.00 | 0.77 | 0.00 | 97 | 1015.6 |
| 20260904072019 | 65 | 0 | 0.0 | 0.0 | 0.00 | 0.77 | 0.00 | 97 | 1015.5 |
| 20260904071538 | 66 | 0 | 0.0 | 0.0 | 0.00 | 0.77 | 0.00 | 97 | 1015.5 |
| 20260904071017 | 65 | 0 | 0.0 | 0.0 | 0.00 | 0.77 | 0.00 | 97 | 1015.6 |
| 20260904070518 | 65 | 0 | 0.0 | 0.0 | 0.00 | 0.77 | 0.00 | 97 | 1015.7 |
| 20260904070036 | 65 | 0 | 0.0 | 0.0 | 0.00 | 0.77 | 0.00 | 97 | 1016.0 |
| 20260904065521 | 65 | 0 | 0.0 | 0.9 | 0.00 | 0.77 | 0.00 | 97 | 1016.1 |
| 20260904065015 | 65 | 0 | 0.0 | 0.9 | 0.00 | 0.77 | 0.00 | 97 | 1016.4 |
| 20260904064537 | 65 | 0 | 0.0 | 0.0 | 0.00 | 0.77 | 0.00 | 97 | 1016.6 |
| 20260904064015 | 65 | 0 | 0.0 | 0.0 | 0.00 | 0.77 | 0.00 | 97 | 1016.6 |
| 20260904063517 | 65 | 0 | 0.0 | 0.0 | 0.00 | 0.77 | 0.00 | 97 | 1016.5 |
| 20260904063045 | 65 | 0 | 0.0 | 0.0 | 0.00 | 0.77 | 0.00 | 97 | 1016.8 |
| 20260904062528 | 65 | 0 | 0.0 | 0.0 | 0.00 | 0.77 | 0.00 | 97 | 1016.8 |
| 20260904062019 | 65 | 0 | 0.0 | 0.0 | 0.00 | 0.77 | 0.00 | 97 | 1016.8 |
| 20260904061539 | 65 | 0 | 0.0 | 0.0 | 0.00 | 0.77 | 0.00 | 97 | 1016.7 |